Voltar ao catálogo

STARLINK-36182

AtivoComunicaçõesVLEO
NORAD 67192·PAYLOAD·🇺🇸 United States

Lançado Dec 17, 2025 de Vandenberg Space Force Base

Loading…

Próximas Passagens (próximas 24 horas)

TLE

AtualizadoSource: CelesTrak SupGP

Época: Sep 15, 2026, 04:00 UTC

1 67192C 25304A   26258.16715278 -.00017498  00000+0 -14668-2 0  2584
2 67192  70.0017  56.7273 0002502 268.0311 193.6083 14.98329990    17

Acompanhe STARLINK-36182 em tempo real com AllMySat

Download on the App Store